| time (UTC) | temp F | wind direction | speed MPH | gust MPH | rain 1hr in | rain 24hr in | rain mn in | humidity % | barometer mb |
| 20260506211210 | 80 | 103 | 7.0 | 11.0 | 0.00 | 0.00 | 0.00 | 25 | 1015.5 |
| 20260506210707 | 81 | 85 | 2.0 | 3.0 | 0.00 | 0.00 | 0.00 | 25 | 1015.5 |
| 20260506210204 | 81 | 184 | 4.0 | 6.0 | 0.00 | 0.00 | 0.00 | 25 | 1015.6 |
| 20260506205701 | 81 | 216 | 3.0 | 5.0 | 0.00 | 0.00 | 0.00 | 24 | 1015.8 |
| 20260506205156 | 81 | 160 | 4.0 | 5.0 | 0.00 | 0.00 | 0.00 | 24 | 1015.5 |
| 20260506204654 | 79 | 36 | 3.0 | 3.0 | 0.00 | 0.00 | 0.00 | 27 | 1015.7 |
| 20260506204151 | 79 | 91 | 4.0 | 6.0 | 0.00 | 0.00 | 0.00 | 26 | 1015.7 |
| 20260506203649 | 80 | 92 | 3.0 | 5.0 | 0.00 | 0.00 | 0.00 | 26 | 1015.7 |
| 20260506203146 | 78 | 231 | 3.0 | 6.0 | 0.00 | 0.00 | 0.00 | 27 | 1015.7 |
| 20260506202644 | 79 | 99 | 4.0 | 7.0 | 0.00 | 0.00 | 0.00 | 27 | 1015.9 |
| 20260506202139 | 80 | 52 | 2.0 | 3.0 | 0.00 | 0.00 | 0.00 | 26 | 1015.7 |
| 20260506201636 | 78 | 59 | 5.0 | 6.0 | 0.00 | 0.00 | 0.00 | 27 | 1015.9 |
| 20260506201133 | 79 | 140 | 3.0 | 3.0 | 0.00 | 0.00 | 0.00 | 26 | 1016.1 |
| 20260506200630 | 79 | 98 | 4.0 | 5.0 | 0.00 | 0.00 | 0.00 | 26 | 1016.0 |
| 20260506200126 | 79 | 162 | 3.0 | 3.0 | 0.00 | 0.00 | 0.00 | 26 | 1016.1 |
| 20260506195623 | 78 | 57 | 4.0 | 5.0 | 0.00 | 0.00 | 0.00 | 27 | 1015.9 |
| 20260506195119 | 78 | 37 | 5.0 | 8.0 | 0.00 | 0.00 | 0.00 | 27 | 1015.9 |
| 20260506194617 | 78 | 57 | 6.0 | 6.0 | 0.00 | 0.00 | 0.00 | 26 | 1016.1 |
| 20260506194113 | 77 | 298 | 2.0 | 2.0 | 0.00 | 0.00 | 0.00 | 30 | 1015.9 |
| 20260506193611 | 77 | 94 | 2.0 | 2.0 | 0.00 | 0.00 | 0.00 | 29 | 1016.1 |
| 20260506193108 | 77 | 256 | 0.0 | 1.0 | 0.00 | 0.00 | 0.00 | 29 | 1016.2 |
| 20260506192605 | 76 | 223 | 0.0 | 0.0 | 0.00 | 0.00 | 0.00 | 29 | 1015.9 |
| 20260506192101 | 78 | 354 | 2.0 | 2.0 | 0.00 | 0.00 | 0.00 | 30 | 1016.2 |
| 20260506191557 | 77 | 229 | 4.0 | 5.0 | 0.00 | 0.00 | 0.00 | 31 | 1015.9 |
| 20260506191053 | 75 | 78 | 4.0 | 5.0 | 0.00 | 0.00 | 0.00 | 30 | 1016.2 |
| 20260506190551 | 75 | 237 | 0.0 | 1.0 | 0.00 | 0.00 | 0.00 | 30 | 1016.3 |
| 20260506190048 | 75 | 234 | 4.0 | 5.0 | 0.00 | 0.00 | 0.00 | 31 | 1016.2 |
| 20260506185545 | 75 | 313 | 2.0 | 2.0 | 0.00 | 0.00 | 0.00 | 30 | 1016.3 |
| 20260506185041 | 75 | 357 | 2.0 | 5.0 | 0.00 | 0.00 | 0.00 | 32 | 1016.6 |
| 20260506184539 | 74 | 259 | 1.0 | 1.0 | 0.00 | 0.00 | 0.00 | 32 | 1016.3 |
| 20260506184036 | 74 | 24 | 4.0 | 6.0 | 0.00 | 0.00 | 0.00 | 33 | 1016.4 |
| 20260506183532 | 74 | 343 | 7.0 | 9.0 | 0.00 | 0.00 | 0.00 | 32 | 1016.7 |
| 20260506183029 | 74 | 252 | 3.0 | 3.0 | 0.00 | 0.00 | 0.00 | 32 | 1016.4 |
| 20260506182526 | 74 | 49 | 3.0 | 3.0 | 0.00 | 0.00 | 0.00 | 33 | 1016.8 |
| 20260506182023 | 72 | 229 | 0.0 | 1.0 | 0.00 | 0.00 | 0.00 | 31 | 1016.8 |
| 20260506181521 | 73 | 282 | 1.0 | 1.0 | 0.00 | 0.00 | 0.00 | 32 | 1016.7 |
| 20260506181018 | 72 | 308 | 3.0 | 3.0 | 0.00 | 0.00 | 0.00 | 34 | 1016.7 |
| 20260506180514 | 72 | 309 | 4.0 | 5.0 | 0.00 | 0.00 | 0.00 | 33 | 1016.4 |
| 20260506180011 | 72 | 327 | 2.0 | 2.0 | 0.00 | 0.00 | 0.00 | 38 | 1016.7 |
| 20260506175508 | 71 | 113 | 1.0 | 2.0 | 0.00 | 0.00 | 0.00 | 38 | 1016.9 |
| 20260506175004 | 71 | 106 | 3.0 | 5.0 | 0.00 | 0.00 | 0.00 | 38 | 1016.8 |
| 20260506174502 | 71 | 206 | 3.0 | 5.0 | 0.00 | 0.00 | 0.00 | 36 | 1016.8 |
| 20260506173958 | 71 | 159 | 5.0 | 6.0 | 0.00 | 0.00 | 0.00 | 36 | 1016.7 |
| 20260506173456 | 71 | 173 | 5.0 | 10.0 | 0.00 | 0.00 | 0.00 | 38 | 1016.8 |
| 20260506172952 | 70 | 168 | 3.0 | 3.0 | 0.00 | 0.00 | 0.00 | 38 | 1017.0 |
| 20260506172450 | 70 | 166 | 3.0 | 3.0 | 0.00 | 0.00 | 0.00 | 37 | 1016.8 |
| 20260506171946 | 68 | 240 | 3.0 | 5.0 | 0.00 | 0.00 | 0.00 | 41 | 1017.0 |
| 20260506171444 | 67 | 245 | 1.0 | 1.0 | 0.00 | 0.00 | 0.00 | 42 | 1016.8 |
| 20260506170941 | 67 | 193 | 4.0 | 6.0 | 0.00 | 0.00 | 0.00 | 43 | 1017.1 |
| 20260506170437 | 67 | 223 | 2.0 | 2.0 | 0.00 | 0.00 | 0.00 | 43 | 1017.1 |
| 20260506165930 | 67 | 201 | 4.0 | 5.0 | 0.00 | 0.00 | 0.00 | 43 | 1017.0 |
| 20260506165429 | 66 | 268 | 2.0 | 3.0 | 0.00 | 0.00 | 0.00 | 43 | 1017.0 |
| 20260506164924 | 65 | 120 | 2.0 | 2.0 | 0.00 | 0.00 | 0.00 | 44 | 1017.0 |
| 20260506164421 | 65 | 38 | 3.0 | 3.0 | 0.00 | 0.00 | 0.00 | 44 | 1017.1 |
| 20260506163914 | 65 | 242 | 3.0 | 3.0 | 0.00 | 0.00 | 0.00 | 45 | 1017.1 |
| 20260506163414 | 67 | 241 | 1.0 | 2.0 | 0.00 | 0.00 | 0.00 | 44 | 1017.0 |
| 20260506162908 | 66 | 178 | 3.0 | 5.0 | 0.00 | 0.00 | 0.00 | 44 | 1017.1 |
| 20260506162407 | 66 | 231 | 0.0 | 1.0 | 0.00 | 0.00 | 0.00 | 45 | 1017.1 |
| 20260506161858 | 65 | 226 | 0.0 | 1.0 | 0.00 | 0.00 | 0.00 | 45 | 1017.1 |
| 20260506161355 | 64 | 208 | 2.0 | 2.0 | 0.00 | 0.00 | 0.00 | 45 | 1017.0 |
| 20260506160854 | 66 | 39 | 2.0 | 3.0 | 0.00 | 0.00 | 0.00 | 45 | 1017.1 |
| 20260506160350 | 65 | 265 | 0.0 | 1.0 | 0.00 | 0.00 | 0.00 | 45 | 1017.2 |
| 20260506155848 | 63 | 189 | 2.0 | 2.0 | 0.00 | 0.00 | 0.00 | 48 | 1017.0 |
| 20260506155345 | 63 | 116 | 2.0 | 2.0 | 0.00 | 0.00 | 0.00 | 47 | 1017.0 |
| 20260506153502 | 62 | 108 | 3.0 | 3.0 | 0.00 | 0.00 | 0.00 | 49 | 1017.1 |
| 20260506153000 | 61 | 152 | 3.0 | 3.0 | 0.00 | 0.00 | 0.00 | 52 | 1017.0 |
| 20260506152456 | 61 | 162 | 3.0 | 3.0 | 0.00 | 0.00 | 0.00 | 52 | 1017.0 |
| 20260506151954 | 60 | 112 | 2.0 | 3.0 | 0.00 | 0.00 | 0.00 | 53 | 1017.0 |
| 20260506151452 | 60 | 121 | 2.0 | 2.0 | 0.00 | 0.00 | 0.00 | 54 | 1017.1 |
| 20260506150949 | 60 | 226 | 0.0 | 2.0 | 0.00 | 0.00 | 0.00 | 54 | 1017.2 |
| 20260506150445 | 59 | 123 | 4.0 | 5.0 | 0.00 | 0.00 | 0.00 | 55 | 1017.1 |
| 20260506145942 | 59 | 138 | 3.0 | 5.0 | 0.00 | 0.00 | 0.00 | 56 | 1017.2 |
| 20260506145438 | 58 | 107 | 0.0 | 1.0 | 0.00 | 0.00 | 0.00 | 57 | 1017.0 |
| 20260506144936 | 58 | 118 | 4.0 | 5.0 | 0.00 | 0.00 | 0.00 | 58 | 1017.2 |
| 20260506144432 | 57 | 103 | 4.0 | 5.0 | 0.00 | 0.00 | 0.00 | 59 | 1016.8 |
| 20260506143931 | 57 | 114 | 4.0 | 5.0 | 0.00 | 0.00 | 0.00 | 61 | 1016.8 |
| 20260506143428 | 57 | 112 | 2.0 | 2.0 | 0.00 | 0.00 | 0.00 | 62 | 1016.8 |
| 20260506142926 | 57 | 79 | 0.0 | 1.0 | 0.00 | 0.00 | 0.00 | 62 | 1017.0 |
| 20260506142424 | 57 | 219 | 0.0 | 0.0 | 0.00 | 0.00 | 0.00 | 63 | 1016.8 |
| 20260506141921 | 56 | 207 | 0.0 | 0.0 | 0.00 | 0.00 | 0.00 | 62 | 1016.9 |
| 20260506141419 | 55 | 214 | 0.0 | 0.0 | 0.00 | 0.00 | 0.00 | 63 | 1016.6 |
| 20260506140917 | 55 | 230 | 0.0 | 0.0 | 0.00 | 0.00 | 0.00 | 63 | 1016.8 |
| 20260506140414 | 53 | 230 | 0.0 | 0.0 | 0.00 | 0.00 | 0.00 | 68 | 1016.8 |
| 20260506135911 | 52 | 228 | 0.0 | 0.0 | 0.00 | 0.00 | 0.00 | 68 | 1016.7 |
| 20260506135408 | 52 | 213 | 0.0 | 0.0 | 0.00 | 0.00 | 0.00 | 70 | 1016.8 |
| 20260506134904 | 51 | 213 | 0.0 | 0.0 | 0.00 | 0.00 | 0.00 | 71 | 1016.7 |
| 20260506134400 | 51 | 213 | 0.0 | 0.0 | 0.00 | 0.00 | 0.00 | 71 | 1016.3 |
| 20260506133857 | 51 | 213 | 0.0 | 0.0 | 0.00 | 0.00 | 0.00 | 70 | 1016.4 |
| 20260506133354 | 51 | 213 | 0.0 | 0.0 | 0.00 | 0.00 | 0.00 | 71 | 1016.4 |
| 20260506132850 | 51 | 213 | 1.0 | 1.0 | 0.00 | 0.00 | 0.00 | 72 | 1016.2 |
| 20260506132348 | 50 | 210 | 0.0 | 0.0 | 0.00 | 0.00 | 0.00 | 72 | 1016.2 |
| 20260506131846 | 50 | 202 | 0.0 | 0.0 | 0.00 | 0.00 | 0.00 | 72 | 1016.2 |
| 20260506131342 | 50 | 220 | 0.0 | 0.0 | 0.00 | 0.00 | 0.00 | 72 | 1016.0 |
| 20260506130839 | 50 | 211 | 0.0 | 0.0 | 0.00 | 0.00 | 0.00 | 71 | 1016.2 |
| 20260506130335 | 49 | 221 | 1.0 | 2.0 | 0.00 | 0.00 | 0.00 | 73 | 1016.0 |
| 20260506125833 | 50 | 196 | 2.0 | 2.0 | 0.00 | 0.00 | 0.00 | 73 | 1015.9 |
| 20260506125332 | 50 | 191 | 2.0 | 3.0 | 0.00 | 0.00 | 0.00 | 73 | 1016.0 |
| 20260506124830 | 50 | 211 | 2.0 | 2.0 | 0.00 | 0.00 | 0.00 | 74 | 1016.3 |
| 20260506124326 | 50 | 198 | 2.0 | 2.0 | 0.00 | 0.00 | 0.00 | 73 | 1016.2 |
| 20260506123824 | 50 | 216 | 2.0 | 2.0 | 0.00 | 0.00 | 0.00 | 72 | 1016.3 |
| 20260506123322 | 49 | 222 | 0.0 | 0.0 | 0.00 | 0.00 | 0.00 | 74 | 1016.2 |
| 20260506122819 | 50 | 223 | 0.0 | 0.0 | 0.00 | 0.00 | 0.00 | 74 | 1016.1 |
| 20260506122316 | 49 | 225 | 0.0 | 0.0 | 0.00 | 0.00 | 0.00 | 75 | 1016.2 |
| 20260506121814 | 49 | 226 | 0.0 | 0.0 | 0.00 | 0.00 | 0.00 | 75 | 1016.0 |
| 20260506121311 | 49 | 225 | 0.0 | 0.0 | 0.00 | 0.00 | 0.00 | 74 | 1015.9 |
| 20260506120808 | 50 | 226 | 0.0 | 0.0 | 0.00 | 0.00 | 0.00 | 73 | 1015.8 |
| 20260506120306 | 50 | 196 | 0.0 | 0.0 | 0.00 | 0.00 | 0.00 | 72 | 1015.9 |
| 20260506115803 | 50 | 215 | 0.0 | 0.0 | 0.00 | 0.00 | 0.00 | 72 | 1016.0 |
| 20260506115306 | 51 | 217 | 0.0 | 0.0 | 0.00 | 0.00 | 0.00 | 71 | 1015.9 |
| 20260506114759 | 51 | 226 | 0.0 | 0.0 | 0.00 | 0.00 | 0.00 | 70 | 1015.9 |
| 20260506114256 | 50 | 220 | 0.0 | 0.0 | 0.00 | 0.00 | 0.00 | 71 | 1015.7 |
| 20260506113755 | 50 | 272 | 0.0 | 0.0 | 0.00 | 0.00 | 0.00 | 71 | 1015.7 |
| 20260506113252 | 51 | 169 | 2.0 | 2.0 | 0.00 | 0.00 | 0.00 | 70 | 1015.7 |
| 20260506112748 | 52 | 225 | 0.0 | 0.0 | 0.00 | 0.00 | 0.00 | 68 | 1015.7 |
| 20260506112246 | 52 | 232 | 0.0 | 0.0 | 0.00 | 0.00 | 0.00 | 67 | 1015.7 |
| 20260506111743 | 53 | 244 | 0.0 | 0.0 | 0.00 | 0.00 | 0.00 | 66 | 1015.8 |
| 20260506111241 | 52 | 257 | 3.0 | 3.0 | 0.00 | 0.00 | 0.00 | 67 | 1015.7 |
| 20260506110737 | 52 | 229 | 2.0 | 2.0 | 0.00 | 0.00 | 0.00 | 67 | 1015.6 |
| 20260506110235 | 53 | 262 | 2.0 | 2.0 | 0.00 | 0.00 | 0.00 | 67 | 1015.5 |
| 20260506105732 | 53 | 277 | 3.0 | 3.0 | 0.00 | 0.00 | 0.00 | 66 | 1015.8 |
| 20260506105229 | 53 | 255 | 3.0 | 3.0 | 0.00 | 0.00 | 0.00 | 66 | 1015.6 |
| 20260506104727 | 53 | 325 | 2.0 | 3.0 | 0.00 | 0.00 | 0.00 | 66 | 1015.6 |
| 20260506104224 | 53 | 252 | 0.0 | 1.0 | 0.00 | 0.00 | 0.00 | 66 | 1015.6 |
| 20260506103721 | 53 | 247 | 0.0 | 1.0 | 0.00 | 0.00 | 0.00 | 67 | 1015.6 |
| 20260506103218 | 53 | 251 | 1.0 | 1.0 | 0.00 | 0.00 | 0.00 | 66 | 1015.4 |
| 20260506102716 | 53 | 248 | 5.0 | 6.0 | 0.00 | 0.00 | 0.00 | 65 | 1015.5 |
| 20260506102214 | 53 | 217 | 5.0 | 5.0 | 0.00 | 0.00 | 0.00 | 66 | 1015.6 |
| 20260506101710 | 53 | 257 | 5.0 | 6.0 | 0.00 | 0.00 | 0.00 | 65 | 1015.5 |
| 20260506101207 | 53 | 233 | 10.0 | 11.0 | 0.00 | 0.00 | 0.00 | 66 | 1015.6 |
| 20260506100705 | 53 | 260 | 5.0 | 6.0 | 0.00 | 0.00 | 0.00 | 66 | 1015.4 |
| 20260506100203 | 53 | 273 | 8.0 | 9.0 | 0.00 | 0.00 | 0.00 | 66 | 1015.6 |
| 20260506095701 | 53 | 256 | 10.0 | 11.0 | 0.00 | 0.00 | 0.00 | 66 | 1015.4 |
| 20260506095157 | 53 | 218 | 13.0 | 15.0 | 0.00 | 0.00 | 0.00 | 67 | 1015.5 |
| 20260506094655 | 53 | 222 | 9.0 | 10.0 | 0.00 | 0.00 | 0.00 | 67 | 1015.4 |
| 20260506094152 | 53 | 232 | 11.0 | 13.0 | 0.00 | 0.00 | 0.00 | 67 | 1015.4 |
| 20260506093651 | 53 | 213 | 9.0 | 10.0 | 0.00 | 0.00 | 0.00 | 67 | 1015.5 |
| 20260506093148 | 53 | 227 | 11.0 | 14.0 | 0.00 | 0.00 | 0.00 | 66 | 1015.4 |
| 20260506092646 | 53 | 245 | 10.0 | 13.0 | 0.00 | 0.00 | 0.00 | 67 | 1015.5 |
| 20260506092143 | 53 | 211 | 8.0 | 9.0 | 0.00 | 0.00 | 0.00 | 68 | 1015.4 |
| 20260506091640 | 53 | 257 | 7.0 | 8.0 | 0.00 | 0.00 | 0.00 | 68 | 1015.3 |
| 20260506091138 | 53 | 240 | 9.0 | 9.0 | 0.00 | 0.00 | 0.00 | 68 | 1015.4 |
| 20260506090636 | 53 | 285 | 9.0 | 13.0 | 0.00 | 0.00 | 0.00 | 68 | 1015.3 |
| 20260506090132 | 53 | 218 | 12.0 | 14.0 | 0.00 | 0.00 | 0.00 | 67 | 1015.3 |
| 20260506085629 | 53 | 244 | 9.0 | 15.0 | 0.00 | 0.00 | 0.00 | 68 | 1015.4 |
| 20260506085125 | 53 | 222 | 11.0 | 13.0 | 0.00 | 0.00 | 0.00 | 67 | 1015.7 |
| 20260506084622 | 53 | 237 | 9.0 | 10.0 | 0.00 | 0.00 | 0.00 | 67 | 1015.4 |
| 20260506084118 | 53 | 262 | 7.0 | 8.0 | 0.00 | 0.00 | 0.00 | 68 | 1015.7 |
| 20260506083615 | 53 | 245 | 9.0 | 11.0 | 0.00 | 0.00 | 0.00 | 68 | 1015.7 |
| 20260506083113 | 53 | 256 | 7.0 | 8.0 | 0.00 | 0.00 | 0.00 | 67 | 1015.5 |
| 20260506082609 | 53 | 252 | 13.0 | 15.0 | 0.00 | 0.00 | 0.00 | 68 | 1015.6 |
| 20260506082105 | 53 | 281 | 10.0 | 11.0 | 0.00 | 0.00 | 0.00 | 68 | 1015.4 |
| 20260506081604 | 53 | 237 | 13.0 | 16.0 | 0.00 | 0.00 | 0.00 | 68 | 1015.7 |
| 20260506081101 | 53 | 242 | 14.0 | 18.0 | 0.00 | 0.00 | 0.00 | 67 | 1015.5 |
| 20260506080558 | 53 | 274 | 15.0 | 18.0 | 0.00 | 0.00 | 0.00 | 67 | 1015.5 |
| 20260506073038 | 53 | 281 | 10.0 | 13.0 | 0.00 | 0.00 | 0.00 | 67 | 1015.7 |
| 20260506072536 | 53 | 187 | 15.0 | 17.0 | 0.00 | 0.00 | 0.00 | 67 | 1015.6 |
| 20260506072034 | 53 | 242 | 11.0 | 16.0 | 0.00 | 0.00 | 0.00 | 67 | 1015.5 |
| 20260506071531 | 53 | 231 | 14.0 | 17.0 | 0.00 | 0.00 | 0.00 | 67 | 1015.5 |
| 20260506071028 | 53 | 280 | 7.0 | 9.0 | 0.00 | 0.00 | 0.00 | 67 | 1015.3 |
| 20260506070525 | 53 | 249 | 7.0 | 9.0 | 0.00 | 0.00 | 0.00 | 67 | 1015.6 |
| 20260506062503 | 54 | 231 | 12.0 | 14.0 | 0.00 | 0.00 | 0.00 | 65 | 1015.0 |
| 20260506061959 | 54 | 224 | 10.0 | 11.0 | 0.00 | 0.00 | 0.00 | 65 | 1014.7 |
| 20260506061455 | 54 | 247 | 11.0 | 14.0 | 0.00 | 0.00 | 0.00 | 64 | 1014.8 |
| 20260506060953 | 54 | 228 | 12.0 | 15.0 | 0.00 | 0.00 | 0.00 | 65 | 1014.7 |
| 20260506060451 | 53 | 260 | 13.0 | 15.0 | 0.00 | 0.00 | 0.00 | 67 | 1014.9 |
| 20260506050920 | 54 | 280 | 17.0 | 21.0 | 0.00 | 0.00 | 0.00 | 67 | 1014.5 |
| 20260506050417 | 54 | 232 | 12.0 | 14.0 | 0.00 | 0.00 | 0.00 | 67 | 1014.6 |
| 20260506044908 | 54 | 234 | 7.0 | 8.0 | 0.00 | 0.00 | 0.00 | 67 | 1014.5 |
| 20260506044406 | 54 | 226 | 15.0 | 17.0 | 0.00 | 0.00 | 0.00 | 67 | 1014.6 |
| 20260506043903 | 54 | 207 | 8.0 | 11.0 | 0.00 | 0.00 | 0.00 | 67 | 1014.3 |
| 20260506043400 | 54 | 232 | 7.0 | 8.0 | 0.00 | 0.00 | 0.00 | 68 | 1014.2 |
| 20260506042858 | 54 | 255 | 9.0 | 11.0 | 0.00 | 0.00 | 0.00 | 68 | 1014.1 |
| 20260506042357 | 54 | 247 | 9.0 | 10.0 | 0.00 | 0.00 | 0.00 | 68 | 1014.2 |
| 20260506041855 | 54 | 263 | 6.0 | 9.0 | 0.00 | 0.00 | 0.00 | 69 | 1014.1 |
| 20260506041352 | 54 | 249 | 9.0 | 10.0 | 0.00 | 0.00 | 0.00 | 68 | 1014.1 |
| 20260506040849 | 54 | 249 | 7.0 | 8.0 | 0.00 | 0.00 | 0.00 | 68 | 1014.2 |
| 20260506040347 | 54 | 257 | 7.0 | 8.0 | 0.00 | 0.00 | 0.00 | 69 | 1014.1 |
| 20260506035842 | 54 | 251 | 12.0 | 14.0 | 0.00 | 0.00 | 0.00 | 69 | 1014.1 |
| 20260506035340 | 54 | 252 | 10.0 | 14.0 | 0.00 | 0.00 | 0.00 | 68 | 1014.1 |
| 20260506034837 | 54 | 238 | 9.0 | 11.0 | 0.00 | 0.00 | 0.00 | 68 | 1013.9 |
| 20260506034334 | 54 | 248 | 8.0 | 11.0 | 0.00 | 0.00 | 0.00 | 68 | 1013.6 |
| 20260506033831 | 54 | 255 | 11.0 | 15.0 | 0.00 | 0.00 | 0.00 | 68 | 1013.6 |
| 20260506033328 | 54 | 241 | 7.0 | 9.0 | 0.00 | 0.00 | 0.00 | 67 | 1014.1 |
| 20260506032825 | 55 | 251 | 8.0 | 9.0 | 0.00 | 0.00 | 0.00 | 66 | 1013.9 |
| 20260506032322 | 55 | 257 | 7.0 | 8.0 | 0.00 | 0.00 | 0.00 | 66 | 1013.8 |
| 20260506031819 | 55 | 244 | 9.0 | 9.0 | 0.00 | 0.00 | 0.00 | 66 | 1014.0 |
| 20260506031316 | 55 | 269 | 9.0 | 11.0 | 0.00 | 0.00 | 0.00 | 66 | 1013.3 |
| 20260506030814 | 55 | 259 | 7.0 | 8.0 | 0.00 | 0.00 | 0.00 | 65 | 1013.5 |
| 20260506030312 | 55 | 247 | 9.0 | 11.0 | 0.00 | 0.00 | 0.00 | 65 | 1013.8 |
| 20260506025808 | 55 | 260 | 8.0 | 10.0 | 0.00 | 0.00 | 0.00 | 65 | 1013.4 |
| 20260506025306 | 55 | 245 | 5.0 | 6.0 | 0.00 | 0.00 | 0.00 | 65 | 1013.5 |
| 20260506024802 | 56 | 251 | 11.0 | 11.0 | 0.00 | 0.00 | 0.00 | 65 | 1013.4 |
| 20260506024258 | 56 | 276 | 5.0 | 6.0 | 0.00 | 0.00 | 0.00 | 64 | 1013.4 |
| 20260506023754 | 56 | 266 | 6.0 | 7.0 | 0.00 | 0.00 | 0.00 | 64 | 1013.3 |
| 20260506023252 | 56 | 272 | 9.0 | 10.0 | 0.00 | 0.00 | 0.00 | 64 | 1013.0 |
| 20260506022748 | 56 | 285 | 11.0 | 13.0 | 0.00 | 0.00 | 0.00 | 63 | 1013.2 |
| 20260506022246 | 57 | 252 | 6.0 | 8.0 | 0.00 | 0.00 | 0.00 | 63 | 1013.1 |
| 20260506021744 | 57 | 278 | 5.0 | 6.0 | 0.00 | 0.00 | 0.00 | 62 | 1013.0 |
| 20260506021240 | 57 | 262 | 6.0 | 7.0 | 0.00 | 0.00 | 0.00 | 62 | 1013.1 |
| 20260506020737 | 57 | 222 | 8.0 | 10.0 | 0.00 | 0.00 | 0.00 | 61 | 1012.8 |
| 20260506020235 | 57 | 244 | 7.0 | 9.0 | 0.00 | 0.00 | 0.00 | 61 | 1013.0 |
| 20260506015733 | 58 | 264 | 13.0 | 16.0 | 0.00 | 0.00 | 0.00 | 61 | 1012.7 |
| 20260506015230 | 58 | 285 | 11.0 | 13.0 | 0.00 | 0.00 | 0.00 | 60 | 1012.9 |
| 20260506014727 | 58 | 256 | 13.0 | 16.0 | 0.00 | 0.00 | 0.00 | 58 | 1012.8 |
| 20260506014223 | 59 | 276 | 8.0 | 9.0 | 0.00 | 0.00 | 0.00 | 59 | 1012.6 |
| 20260506013720 | 58 | 264 | 9.0 | 11.0 | 0.00 | 0.00 | 0.00 | 57 | 1012.7 |
| 20260506013218 | 59 | 342 | 16.0 | 20.0 | 0.00 | 0.00 | 0.00 | 56 | 1012.7 |
| 20260506012714 | 59 | 180 | 13.0 | 18.0 | 0.00 | 0.00 | 0.00 | 56 | 1012.8 |
| 20260506012211 | 59 | 314 | 13.0 | 17.0 | 0.00 | 0.00 | 0.00 | 56 | 1012.9 |
| 20260506011708 | 59 | 281 | 14.0 | 17.0 | 0.00 | 0.00 | 0.00 | 58 | 1012.7 |
| 20260506011204 | 59 | 273 | 9.0 | 11.0 | 0.00 | 0.00 | 0.00 | 58 | 1012.9 |
| 20260506010703 | 59 | 267 | 17.0 | 20.0 | 0.00 | 0.00 | 0.00 | 58 | 1012.7 |
| 20260506010200 | 60 | 270 | 8.0 | 10.0 | 0.00 | 0.00 | 0.00 | 57 | 1012.6 |
| 20260506005657 | 60 | 299 | 12.0 | 15.0 | 0.00 | 0.00 | 0.00 | 55 | 1012.8 |
| 20260506005153 | 60 | 272 | 13.0 | 15.0 | 0.00 | 0.00 | 0.00 | 55 | 1012.6 |
| 20260506004649 | 60 | 252 | 11.0 | 15.0 | 0.00 | 0.00 | 0.00 | 56 | 1012.4 |
| 20260506004147 | 60 | 269 | 14.0 | 17.0 | 0.00 | 0.00 | 0.00 | 56 | 1012.5 |
| 20260506003643 | 60 | 273 | 10.0 | 11.0 | 0.00 | 0.00 | 0.00 | 54 | 1012.1 |
| 20260506003139 | 60 | 266 | 18.0 | 25.0 | 0.00 | 0.00 | 0.00 | 55 | 1012.5 |
| 20260506002635 | 60 | 277 | 19.0 | 22.0 | 0.00 | 0.00 | 0.00 | 54 | 1012.1 |
| 20260506002132 | 60 | 257 | 13.0 | 15.0 | 0.00 | 0.00 | 0.00 | 55 | 1012.1 |
| 20260506001627 | 60 | 287 | 14.0 | 17.0 | 0.00 | 0.00 | 0.00 | 54 | 1011.9 |
| 20260506001125 | 60 | 272 | 12.0 | 16.0 | 0.00 | 0.00 | 0.00 | 53 | 1011.8 |
| 20260506000622 | 62 | 270 | 12.0 | 20.0 | 0.00 | 0.00 | 0.00 | 51 | 1011.9 |
| 20260506000120 | 62 | 274 | 15.0 | 17.0 | 0.00 | 0.00 | 0.00 | 52 | 1012.0 |
| 20260505235618 | 62 | 251 | 14.0 | 17.0 | 0.00 | 0.00 | 0.00 | 51 | 1011.9 |
| 20260505235114 | 61 | 164 | 18.0 | 25.0 | 0.00 | 0.00 | 0.00 | 50 | 1011.8 |
| 20260505234612 | 61 | 223 | 13.0 | 17.0 | 0.00 | 0.00 | 0.00 | 52 | 1011.7 |
| 20260505234108 | 62 | 271 | 13.0 | 17.0 | 0.00 | 0.00 | 0.00 | 50 | 1011.7 |
| 20260505233606 | 63 | 285 | 12.0 | 14.0 | 0.00 | 0.00 | 0.00 | 51 | 1011.7 |
| 20260505233103 | 62 | 290 | 10.0 | 11.0 | 0.00 | 0.00 | 0.00 | 50 | 1011.7 |
| 20260505232601 | 61 | 249 | 15.0 | 18.0 | 0.00 | 0.00 | 0.00 | 51 | 1011.6 |
| 20260505232058 | 62 | 214 | 16.0 | 18.0 | 0.00 | 0.00 | 0.00 | 52 | 1011.5 |
| 20260505231554 | 61 | 263 | 15.0 | 18.0 | 0.00 | 0.00 | 0.00 | 52 | 1011.4 |
| 20260505231053 | 61 | 242 | 12.0 | 16.0 | 0.00 | 0.00 | 0.00 | 52 | 1011.4 |
| 20260505230550 | 62 | 229 | 11.0 | 14.0 | 0.00 | 0.00 | 0.00 | 50 | 1011.5 |
| 20260505230046 | 64 | 294 | 11.0 | 15.0 | 0.00 | 0.00 | 0.00 | 48 | 1011.6 |
| 20260505225544 | 64 | 252 | 16.0 | 18.0 | 0.00 | 0.00 | 0.00 | 47 | 1011.6 |
| 20260505225039 | 62 | 259 | 11.0 | 13.0 | 0.00 | 0.00 | 0.00 | 48 | 1011.9 |
| 20260505224537 | 63 | 293 | 17.0 | 21.0 | 0.00 | 0.00 | 0.00 | 46 | 1011.8 |
| 20260505224034 | 64 | 198 | 14.0 | 17.0 | 0.00 | 0.00 | 0.00 | 47 | 1011.8 |
| 20260505223531 | 63 | 290 | 11.0 | 13.0 | 0.00 | 0.00 | 0.00 | 49 | 1011.8 |
| 20260505223027 | 63 | 248 | 10.0 | 13.0 | 0.00 | 0.00 | 0.00 | 49 | 1012.0 |
| 20260505222523 | 62 | 268 | 12.0 | 15.0 | 0.00 | 0.00 | 0.00 | 50 | 1011.8 |
| 20260505222019 | 63 | 264 | 9.0 | 14.0 | 0.00 | 0.00 | 0.00 | 48 | 1012.1 |
| 20260505221517 | 63 | 248 | 11.0 | 13.0 | 0.00 | 0.00 | 0.00 | 50 | 1011.9 |
| 20260505221014 | 63 | 232 | 14.0 | 18.0 | 0.00 | 0.00 | 0.00 | 49 | 1011.9 |
| 20260505220511 | 62 | 257 | 10.0 | 11.0 | 0.00 | 0.00 | 0.00 | 50 | 1012.1 |
| 20260505220009 | 62 | 259 | 12.0 | 14.0 | 0.00 | 0.00 | 0.00 | 50 | 1012.1 |
| 20260505215506 | 63 | 248 | 13.0 | 17.0 | 0.00 | 0.00 | 0.00 | 50 | 1012.0 |
| 20260505215003 | 63 | 262 | 14.0 | 15.0 | 0.00 | 0.00 | 0.00 | 49 | 1011.9 |
| 20260505214502 | 64 | 272 | 15.0 | 18.0 | 0.00 | 0.00 | 0.00 | 46 | 1012.1 |
| 20260505213953 | 64 | 275 | 15.0 | 21.0 | 0.00 | 0.00 | 0.00 | 47 | 1012.0 |
| 20260505213451 | 62 | 219 | 14.0 | 20.0 | 0.00 | 0.00 | 0.00 | 51 | 1012.1 |
| 20260505212947 | 62 | 285 | 9.0 | 9.0 | 0.00 | 0.00 | 0.00 | 50 | 1012.2 |
| 20260505212443 | 62 | 247 | 18.0 | 21.0 | 0.00 | 0.00 | 0.00 | 50 | 1012.2 |
| 20260505211940 | 62 | 243 | 14.0 | 16.0 | 0.00 | 0.00 | 0.00 | 50 | 1012.0 |